Location: Kosice
(0.0000°N, 21.2500°E)
Time: 18:14:37
(UTC+01:00)

Cosmos 2084 Rocket - Pass Details

Date: 24 January 2021
Orbit: 532 x 649 km, 62.8° (Epoch: 01 March)

Event Time Altitude Azimuth Distance (km) Brightness Sun altitude
Rises 19:03:51 0° 189° (S) 2,708 7.3 -18.1°
Reaches altitude 10° 19:06:13 10° 179° (S) 1,800 6.2 -18.6°
Enters shadow 19:09:28 32° 128° (SE) 924 4.2 -19.4°
